| time (UTC) | temp F | wind direction | speed MPH | gust MPH | rain 1hr in | rain 24hr in | rain mn in | humidity % | barometer mb |
| 20260505102029 | 34 | 330 | 3.0 | 7.0 | 0.00 | 0.00 | 0.00 | 63 | 1008.2 |
| 20260505101537 | 34 | 295 | 2.0 | 7.0 | 0.00 | 0.00 | 0.00 | 63 | 1008.1 |
| 20260505101027 | 35 | 0 | 2.0 | 8.0 | 0.00 | 0.00 | 0.00 | 64 | 1008.2 |
| 20260505100529 | 35 | 296 | 3.0 | 9.0 | 0.00 | 0.00 | 0.00 | 65 | 1008.0 |
| 20260505100043 | 35 | 5 | 3.0 | 9.0 | 0.00 | 0.00 | 0.00 | 65 | 1008.1 |
| 20260505095529 | 35 | 283 | 3.0 | 9.0 | 0.00 | 0.00 | 0.00 | 65 | 1008.1 |
| 20260505095026 | 35 | 322 | 4.0 | 9.0 | 0.00 | 0.00 | 0.00 | 67 | 1008.0 |
| 20260505094542 | 35 | 313 | 4.0 | 9.0 | 0.00 | 0.00 | 0.00 | 68 | 1008.1 |
| 20260505094026 | 35 | 342 | 4.0 | 10.0 | 0.00 | 0.00 | 0.00 | 69 | 1008.1 |
| 20260505093526 | 35 | 333 | 4.0 | 10.0 | 0.00 | 0.00 | 0.00 | 70 | 1008.1 |
| 20260505093043 | 35 | 329 | 2.0 | 8.0 | 0.00 | 0.00 | 0.00 | 70 | 1008.0 |
| 20260505092527 | 35 | 321 | 1.0 | 6.0 | 0.00 | 0.00 | 0.00 | 70 | 1008.0 |
| 20260505092028 | 35 | 289 | 2.0 | 6.0 | 0.00 | 0.00 | 0.00 | 69 | 1007.9 |
| 20260505091543 | 36 | 298 | 2.0 | 8.0 | 0.00 | 0.00 | 0.00 | 69 | 1007.9 |
| 20260505091029 | 36 | 332 | 3.0 | 8.0 | 0.00 | 0.00 | 0.00 | 69 | 1007.8 |
| 20260505090527 | 36 | 333 | 4.0 | 8.0 | 0.00 | 0.00 | 0.00 | 69 | 1007.8 |
| 20260505090046 | 36 | 319 | 2.0 | 9.0 | 0.00 | 0.00 | 0.00 | 68 | 1007.6 |
| 20260505085529 | 36 | 311 | 3.0 | 9.0 | 0.00 | 0.00 | 0.00 | 68 | 1007.6 |
| 20260505085027 | 36 | 321 | 3.0 | 9.0 | 0.00 | 0.00 | 0.00 | 68 | 1007.4 |
| 20260505084540 | 36 | 317 | 4.0 | 9.0 | 0.00 | 0.00 | 0.00 | 68 | 1007.4 |
| 20260505084029 | 37 | 325 | 2.0 | 9.0 | 0.00 | 0.00 | 0.00 | 68 | 1007.4 |
| 20260505083526 | 37 | 43 | 4.0 | 10.0 | 0.00 | 0.00 | 0.00 | 68 | 1007.3 |
| 20260505083037 | 37 | 309 | 4.0 | 10.0 | 0.00 | 0.00 | 0.00 | 67 | 1007.2 |
| 20260505082528 | 37 | 360 | 4.0 | 10.0 | 0.00 | 0.00 | 0.00 | 67 | 1007.2 |
| 20260505082027 | 37 | 304 | 3.0 | 9.0 | 0.00 | 0.00 | 0.00 | 67 | 1007.1 |
| 20260505081540 | 37 | 355 | 3.0 | 9.0 | 0.00 | 0.00 | 0.00 | 67 | 1007.1 |
| 20260505081029 | 37 | 312 | 4.0 | 10.0 | 0.00 | 0.00 | 0.00 | 66 | 1007.1 |
| 20260505080528 | 37 | 311 | 3.0 | 10.0 | 0.00 | 0.00 | 0.00 | 66 | 1007.1 |
| 20260505080042 | 37 | 299 | 3.0 | 10.0 | 0.00 | 0.00 | 0.00 | 66 | 1007.1 |
| 20260505075528 | 37 | 288 | 3.0 | 10.0 | 0.00 | 0.00 | 0.00 | 65 | 1007.2 |
| 20260505075026 | 37 | 323 | 3.0 | 10.0 | 0.00 | 0.00 | 0.00 | 65 | 1007.1 |
| 20260505074541 | 37 | 284 | 2.0 | 9.0 | 0.00 | 0.00 | 0.00 | 65 | 1007.0 |
| 20260505074028 | 37 | 303 | 3.0 | 9.0 | 0.00 | 0.00 | 0.00 | 65 | 1007.1 |
| 20260505073527 | 37 | 336 | 3.0 | 11.0 | 0.00 | 0.00 | 0.00 | 65 | 1007.0 |
| 20260505073058 | 37 | 337 | 4.0 | 11.0 | 0.00 | 0.00 | 0.00 | 65 | 1007.0 |
| 20260505072527 | 37 | 283 | 3.0 | 9.0 | 0.00 | 0.00 | 0.00 | 65 | 1007.0 |
| 20260505072029 | 38 | 297 | 2.0 | 10.0 | 0.00 | 0.00 | 0.00 | 65 | 1006.9 |
| 20260505071546 | 38 | 315 | 5.0 | 10.0 | 0.00 | 0.00 | 0.00 | 64 | 1006.8 |
| 20260505071026 | 38 | 312 | 3.0 | 9.0 | 0.00 | 0.00 | 0.00 | 64 | 1006.9 |
| 20260505070529 | 38 | 296 | 2.0 | 8.0 | 0.00 | 0.00 | 0.00 | 64 | 1006.9 |
| 20260505070044 | 38 | 296 | 3.0 | 9.0 | 0.00 | 0.00 | 0.00 | 63 | 1006.8 |
| 20260505065527 | 38 | 274 | 3.0 | 10.0 | 0.00 | 0.00 | 0.00 | 63 | 1006.9 |
| 20260505065026 | 38 | 287 | 3.0 | 10.0 | 0.00 | 0.00 | 0.00 | 63 | 1006.9 |
| 20260505064544 | 38 | 296 | 2.0 | 9.0 | 0.00 | 0.00 | 0.00 | 62 | 1006.9 |
| 20260505064027 | 38 | 281 | 4.0 | 10.0 | 0.00 | 0.00 | 0.00 | 62 | 1006.9 |
| 20260505063527 | 39 | 302 | 4.0 | 10.0 | 0.00 | 0.00 | 0.00 | 61 | 1007.0 |
| 20260505063041 | 39 | 302 | 4.0 | 10.0 | 0.00 | 0.00 | 0.00 | 61 | 1006.8 |
| 20260505062527 | 39 | 346 | 4.0 | 8.0 | 0.00 | 0.00 | 0.00 | 61 | 1006.8 |
| 20260505062029 | 39 | 327 | 2.0 | 8.0 | 0.00 | 0.00 | 0.00 | 61 | 1006.9 |
| 20260505061549 | 39 | 306 | 3.0 | 8.0 | 0.00 | 0.00 | 0.00 | 60 | 1006.8 |
| 20260505061029 | 39 | 284 | 2.0 | 8.0 | 0.00 | 0.00 | 0.00 | 60 | 1006.8 |
| 20260505060526 | 39 | 288 | 2.0 | 9.0 | 0.00 | 0.00 | 0.00 | 59 | 1006.6 |
| 20260505060045 | 39 | 318 | 4.0 | 11.0 | 0.00 | 0.00 | 0.00 | 59 | 1006.6 |
| 20260505055526 | 39 | 292 | 5.0 | 11.0 | 0.00 | 0.00 | 0.00 | 59 | 1006.7 |
| 20260505055026 | 39 | 275 | 3.0 | 10.0 | 0.00 | 0.00 | 0.00 | 59 | 1006.7 |
| 20260505054606 | 40 | 267 | 4.0 | 10.0 | 0.00 | 0.00 | 0.00 | 59 | 1006.7 |
| 20260505054027 | 40 | 304 | 3.0 | 11.0 | 0.00 | 0.00 | 0.00 | 59 | 1006.6 |
| 20260505053526 | 40 | 292 | 6.0 | 11.0 | 0.00 | 0.00 | 0.00 | 58 | 1006.6 |
| 20260505053057 | 40 | 289 | 4.0 | 10.0 | 0.00 | 0.00 | 0.00 | 58 | 1006.6 |
| 20260505052526 | 40 | 300 | 4.0 | 8.0 | 0.00 | 0.00 | 0.00 | 58 | 1006.6 |
| 20260505052030 | 40 | 275 | 2.0 | 7.0 | 0.00 | 0.00 | 0.00 | 57 | 1006.6 |
| 20260505051538 | 40 | 300 | 3.0 | 7.0 | 0.00 | 0.00 | 0.00 | 56 | 1006.4 |
| 20260505051032 | 40 | 292 | 3.0 | 8.0 | 0.00 | 0.00 | 0.00 | 56 | 1006.4 |
| 20260505050526 | 41 | 328 | 3.0 | 12.0 | 0.00 | 0.00 | 0.00 | 56 | 1006.5 |
| 20260505041539 | 42 | 338 | 5.0 | 15.0 | 0.00 | 0.00 | 0.00 | 53 | 1006.4 |
| 20260505041026 | 42 | 254 | 6.0 | 15.0 | 0.00 | 0.00 | 0.00 | 52 | 1006.4 |
| 20260505040529 | 42 | 17 | 3.0 | 14.0 | 0.00 | 0.00 | 0.00 | 52 | 1006.5 |
| 20260505040041 | 42 | 287 | 4.0 | 14.0 | 0.00 | 0.00 | 0.00 | 51 | 1006.5 |
| 20260505035528 | 42 | 304 | 4.0 | 12.0 | 0.00 | 0.00 | 0.00 | 51 | 1006.4 |
| 20260505035028 | 42 | 337 | 3.0 | 8.0 | 0.00 | 0.00 | 0.00 | 50 | 1006.3 |
| 20260505034541 | 42 | 285 | 2.0 | 9.0 | 0.00 | 0.00 | 0.00 | 50 | 1006.3 |
| 20260505034031 | 43 | 324 | 3.0 | 9.0 | 0.00 | 0.00 | 0.00 | 49 | 1006.3 |
| 20260505033529 | 43 | 304 | 3.0 | 8.0 | 0.00 | 0.00 | 0.00 | 49 | 1006.1 |
| 20260505033042 | 43 | 294 | 3.0 | 11.0 | 0.00 | 0.00 | 0.00 | 48 | 1006.1 |
| 20260505032528 | 43 | 355 | 5.0 | 11.0 | 0.00 | 0.00 | 0.00 | 48 | 1006.2 |
| 20260505032028 | 43 | 321 | 4.0 | 11.0 | 0.00 | 0.00 | 0.00 | 48 | 1006.0 |
| 20260505031553 | 43 | 307 | 3.0 | 10.0 | 0.00 | 0.00 | 0.00 | 48 | 1006.1 |
| 20260505031028 | 43 | 282 | 3.0 | 10.0 | 0.00 | 0.00 | 0.00 | 48 | 1006.0 |
| 20260505030528 | 44 | 313 | 4.0 | 13.0 | 0.00 | 0.00 | 0.00 | 48 | 1006.0 |
| 20260505030040 | 44 | 263 | 5.0 | 13.0 | 0.00 | 0.00 | 0.00 | 48 | 1006.0 |
| 20260505025526 | 44 | 324 | 4.0 | 9.0 | 0.00 | 0.00 | 0.00 | 48 | 1006.1 |
| 20260505025027 | 44 | 276 | 3.0 | 14.0 | 0.00 | 0.00 | 0.00 | 48 | 1005.9 |
| 20260505024541 | 44 | 289 | 4.0 | 14.0 | 0.00 | 0.00 | 0.00 | 48 | 1005.9 |
| 20260505024029 | 44 | 308 | 3.0 | 10.0 | 0.00 | 0.00 | 0.00 | 49 | 1005.8 |
| 20260505023529 | 44 | 304 | 3.0 | 10.0 | 0.00 | 0.00 | 0.00 | 49 | 1005.8 |
| 20260505023035 | 44 | 307 | 4.0 | 10.0 | 0.00 | 0.00 | 0.00 | 49 | 1005.7 |
| 20260505022528 | 45 | 306 | 4.0 | 10.0 | 0.00 | 0.00 | 0.00 | 50 | 1005.8 |
| 20260505022028 | 45 | 290 | 4.0 | 9.0 | 0.00 | 0.00 | 0.00 | 49 | 1005.6 |
| 20260505021542 | 45 | 299 | 3.0 | 10.0 | 0.00 | 0.00 | 0.00 | 49 | 1005.6 |
| 20260505021027 | 45 | 315 | 3.0 | 10.0 | 0.00 | 0.00 | 0.00 | 49 | 1005.5 |
| 20260505020529 | 45 | 337 | 3.0 | 9.0 | 0.00 | 0.00 | 0.00 | 48 | 1005.4 |
| 20260505020041 | 45 | 279 | 3.0 | 11.0 | 0.00 | 0.00 | 0.00 | 48 | 1005.3 |
| 20260505015529 | 46 | 298 | 4.0 | 17.0 | 0.00 | 0.00 | 0.00 | 47 | 1005.2 |
| 20260505015028 | 46 | 290 | 6.0 | 19.0 | 0.00 | 0.00 | 0.00 | 47 | 1005.1 |
| 20260505014540 | 46 | 338 | 7.0 | 19.0 | 0.00 | 0.00 | 0.00 | 46 | 1005.1 |
| 20260505014029 | 46 | 337 | 7.0 | 19.0 | 0.00 | 0.00 | 0.00 | 47 | 1005.0 |
| 20260505013529 | 46 | 304 | 5.0 | 13.0 | 0.00 | 0.00 | 0.00 | 47 | 1005.0 |
| 20260505013113 | 47 | 325 | 6.0 | 15.0 | 0.00 | 0.00 | 0.00 | 47 | 1004.9 |
| 20260505012529 | 47 | 286 | 7.0 | 15.0 | 0.00 | 0.00 | 0.00 | 46 | 1004.8 |
| 20260505012028 | 47 | 300 | 7.0 | 15.0 | 0.00 | 0.00 | 0.00 | 45 | 1004.8 |
| 20260505011544 | 47 | 307 | 6.0 | 15.0 | 0.00 | 0.00 | 0.00 | 45 | 1004.8 |
| 20260505011027 | 47 | 277 | 5.0 | 22.0 | 0.00 | 0.00 | 0.00 | 45 | 1004.6 |
| 20260505010527 | 47 | 298 | 9.0 | 22.0 | 0.00 | 0.00 | 0.00 | 44 | 1004.8 |
| 20260505010042 | 47 | 288 | 6.0 | 21.0 | 0.00 | 0.00 | 0.00 | 43 | 1004.5 |
| 20260505005529 | 47 | 281 | 8.0 | 17.0 | 0.00 | 0.00 | 0.00 | 43 | 1004.5 |
| 20260505005028 | 48 | 345 | 5.0 | 16.0 | 0.00 | 0.00 | 0.00 | 43 | 1004.4 |
| 20260505004548 | 48 | 293 | 8.0 | 19.0 | 0.00 | 0.00 | 0.00 | 43 | 1004.4 |
| 20260505004028 | 48 | 317 | 5.0 | 19.0 | 0.00 | 0.00 | 0.00 | 42 | 1004.4 |
| 20260505003529 | 48 | 303 | 11.0 | 19.0 | 0.00 | 0.00 | 0.00 | 41 | 1004.3 |
| 20260505003042 | 48 | 292 | 8.0 | 16.0 | 0.00 | 0.00 | 0.00 | 42 | 1004.4 |
| 20260505002528 | 48 | 275 | 7.0 | 16.0 | 0.00 | 0.00 | 0.00 | 41 | 1004.3 |
| 20260505002029 | 48 | 284 | 4.0 | 16.0 | 0.00 | 0.00 | 0.00 | 42 | 1004.3 |
| 20260505001537 | 48 | 281 | 6.0 | 16.0 | 0.00 | 0.00 | 0.00 | 41 | 1004.4 |
| 20260505001029 | 48 | 350 | 6.0 | 16.0 | 0.00 | 0.00 | 0.00 | 41 | 1004.3 |
| 20260505000529 | 48 | 276 | 7.0 | 16.0 | 0.00 | 0.00 | 0.00 | 41 | 1004.3 |
| 20260505000058 | 48 | 313 | 8.0 | 16.0 | 0.00 | 0.00 | 0.00 | 41 | 1004.3 |
| 20260504235528 | 48 | 313 | 7.0 | 15.0 | 0.00 | 0.00 | 0.00 | 41 | 1004.4 |
| 20260504235029 | 48 | 302 | 4.0 | 13.0 | 0.00 | 0.00 | 0.00 | 43 | 1004.5 |
| 20260504234541 | 48 | 279 | 5.0 | 14.0 | 0.00 | 0.00 | 0.00 | 42 | 1004.5 |
| 20260504234028 | 48 | 331 | 6.0 | 14.0 | 0.00 | 0.00 | 0.00 | 43 | 1004.4 |
| 20260504233527 | 48 | 316 | 6.0 | 14.0 | 0.00 | 0.00 | 0.00 | 42 | 1004.4 |
| 20260504233041 | 48 | 328 | 7.0 | 18.0 | 0.00 | 0.00 | 0.00 | 42 | 1004.4 |
| 20260504232530 | 48 | 275 | 7.0 | 18.0 | 0.00 | 0.00 | 0.00 | 42 | 1004.4 |
| 20260504232028 | 48 | 296 | 8.0 | 18.0 | 0.00 | 0.00 | 0.00 | 43 | 1004.3 |
| 20260504231539 | 48 | 336 | 7.0 | 23.0 | 0.00 | 0.00 | 0.00 | 43 | 1004.3 |
| 20260504231028 | 48 | 285 | 8.0 | 23.0 | 0.00 | 0.00 | 0.00 | 44 | 1004.3 |
| 20260504230528 | 48 | 279 | 10.0 | 22.0 | 0.00 | 0.00 | 0.00 | 44 | 1004.3 |
| 20260504230048 | 48 | 332 | 10.0 | 22.0 | 0.00 | 0.00 | 0.00 | 43 | 1004.3 |
| 20260504225528 | 48 | 340 | 12.0 | 22.0 | 0.00 | 0.00 | 0.00 | 43 | 1004.3 |
| 20260504225028 | 48 | 42 | 8.0 | 21.0 | 0.00 | 0.00 | 0.00 | 43 | 1004.2 |
| 20260504224536 | 49 | 296 | 10.0 | 21.0 | 0.00 | 0.00 | 0.00 | 43 | 1004.2 |
| 20260504224028 | 49 | 338 | 7.0 | 16.0 | 0.00 | 0.00 | 0.00 | 44 | 1004.1 |
| 20260504223528 | 49 | 292 | 8.0 | 21.0 | 0.00 | 0.00 | 0.00 | 43 | 1003.9 |
| 20260504223042 | 49 | 275 | 10.0 | 23.0 | 0.00 | 0.00 | 0.00 | 43 | 1003.8 |
| 20260504222529 | 49 | 294 | 11.0 | 23.0 | 0.00 | 0.00 | 0.00 | 42 | 1003.8 |
| 20260504222028 | 49 | 272 | 10.0 | 20.0 | 0.00 | 0.00 | 0.00 | 42 | 1003.7 |
| 20260504221553 | 50 | 329 | 8.0 | 18.0 | 0.00 | 0.00 | 0.00 | 42 | 1003.7 |
| 20260504221028 | 50 | 299 | 7.0 | 28.0 | 0.00 | 0.00 | 0.00 | 42 | 1003.5 |
| 20260504220530 | 50 | 285 | 9.0 | 28.0 | 0.00 | 0.00 | 0.00 | 41 | 1003.5 |
| 20260504220040 | 50 | 279 | 9.0 | 22.0 | 0.00 | 0.00 | 0.00 | 41 | 1003.5 |
| 20260504215528 | 50 | 316 | 12.0 | 22.0 | 0.00 | 0.00 | 0.00 | 41 | 1003.3 |
| 20260504215027 | 50 | 317 | 12.0 | 22.0 | 0.00 | 0.00 | 0.00 | 41 | 1003.2 |
| 20260504214537 | 51 | 279 | 10.0 | 22.0 | 0.00 | 0.00 | 0.00 | 40 | 1003.2 |
| 20260504214028 | 51 | 297 | 9.0 | 19.0 | 0.00 | 0.00 | 0.00 | 40 | 1003.0 |
| 20260504213528 | 51 | 330 | 8.0 | 19.0 | 0.00 | 0.00 | 0.00 | 41 | 1003.1 |
| 20260504213043 | 51 | 349 | 7.0 | 17.0 | 0.00 | 0.00 | 0.00 | 41 | 1002.9 |
| 20260504212528 | 51 | 12 | 8.0 | 21.0 | 0.00 | 0.00 | 0.00 | 40 | 1002.9 |
| 20260504212027 | 51 | 292 | 10.0 | 22.0 | 0.00 | 0.00 | 0.00 | 41 | 1002.9 |
| 20260504211547 | 51 | 311 | 9.0 | 22.0 | 0.00 | 0.00 | 0.00 | 41 | 1002.8 |
| 20260504211027 | 51 | 202 | 8.0 | 18.0 | 0.00 | 0.00 | 0.00 | 40 | 1002.8 |
| 20260504210528 | 51 | 269 | 7.0 | 19.0 | 0.00 | 0.00 | 0.00 | 40 | 1002.8 |
| 20260504210047 | 52 | 279 | 8.0 | 23.0 | 0.00 | 0.00 | 0.00 | 41 | 1002.7 |
| 20260504205528 | 52 | 289 | 11.0 | 23.0 | 0.00 | 0.00 | 0.00 | 41 | 1002.8 |
| 20260504205029 | 51 | 284 | 10.0 | 23.0 | 0.00 | 0.00 | 0.00 | 41 | 1002.8 |
| 20260504204540 | 52 | 319 | 10.0 | 23.0 | 0.00 | 0.00 | 0.00 | 39 | 1002.7 |
| 20260504204029 | 52 | 279 | 10.0 | 23.0 | 0.00 | 0.00 | 0.00 | 39 | 1002.5 |
| 20260504203529 | 53 | 276 | 11.0 | 19.0 | 0.00 | 0.00 | 0.00 | 40 | 1002.6 |
| 20260504203038 | 52 | 271 | 10.0 | 24.0 | 0.00 | 0.00 | 0.00 | 40 | 1002.6 |
| 20260504202528 | 52 | 344 | 10.0 | 24.0 | 0.00 | 0.00 | 0.00 | 41 | 1002.5 |
| 20260504202028 | 52 | 341 | 8.0 | 19.0 | 0.00 | 0.00 | 0.00 | 42 | 1002.4 |
| 20260504201544 | 52 | 336 | 8.0 | 17.0 | 0.00 | 0.00 | 0.00 | 41 | 1002.5 |
| 20260504201028 | 52 | 32 | 9.0 | 17.0 | 0.00 | 0.00 | 0.00 | 43 | 1002.4 |
| 20260504200528 | 52 | 302 | 6.0 | 17.0 | 0.00 | 0.00 | 0.00 | 44 | 1002.4 |
| 20260504200042 | 52 | 291 | 9.0 | 21.0 | 0.00 | 0.00 | 0.00 | 44 | 1002.4 |
| 20260504195527 | 52 | 308 | 6.0 | 21.0 | 0.00 | 0.00 | 0.00 | 45 | 1002.4 |
| 20260504195028 | 52 | 285 | 7.0 | 24.0 | 0.00 | 0.00 | 0.00 | 43 | 1002.2 |
| 20260504194540 | 53 | 298 | 9.0 | 25.0 | 0.00 | 0.00 | 0.00 | 42 | 1002.4 |
| 20260504194028 | 53 | 293 | 9.0 | 25.0 | 0.00 | 0.00 | 0.00 | 42 | 1002.3 |
| 20260504193527 | 52 | 286 | 7.0 | 17.0 | 0.00 | 0.00 | 0.00 | 43 | 1002.1 |
| 20260504193041 | 52 | 281 | 9.0 | 17.0 | 0.00 | 0.00 | 0.00 | 42 | 1001.9 |
| 20260504192529 | 53 | 269 | 8.0 | 21.0 | 0.00 | 0.00 | 0.00 | 42 | 1001.8 |
| 20260504192028 | 53 | 222 | 8.0 | 21.0 | 0.00 | 0.00 | 0.00 | 41 | 1001.7 |
| 20260504191541 | 54 | 274 | 8.0 | 21.0 | 0.00 | 0.00 | 0.00 | 40 | 1001.7 |
| 20260504191028 | 54 | 298 | 8.0 | 23.0 | 0.00 | 0.00 | 0.00 | 41 | 1001.8 |
| 20260504190540 | 54 | 321 | 11.0 | 23.0 | 0.00 | 0.00 | 0.00 | 43 | 1001.7 |
| 20260504190046 | 54 | 329 | 8.0 | 24.0 | 0.00 | 0.00 | 0.00 | 43 | 1001.7 |
| 20260504185528 | 54 | 43 | 8.0 | 28.0 | 0.00 | 0.00 | 0.00 | 42 | 1001.7 |
| 20260504185027 | 55 | 317 | 10.0 | 28.0 | 0.00 | 0.00 | 0.00 | 40 | 1001.5 |
| 20260504184542 | 55 | 294 | 8.0 | 18.0 | 0.00 | 0.00 | 0.00 | 40 | 1001.3 |
| 20260504184029 | 56 | 319 | 6.0 | 17.0 | 0.00 | 0.00 | 0.00 | 41 | 1001.2 |
| 20260504183528 | 56 | 352 | 6.0 | 16.0 | 0.00 | 0.00 | 0.00 | 41 | 1001.2 |
| 20260504183041 | 56 | 310 | 8.0 | 18.0 | 0.00 | 0.00 | 0.00 | 40 | 1001.0 |
| 20260504182528 | 55 | 29 | 6.0 | 27.0 | 0.00 | 0.00 | 0.00 | 40 | 1001.0 |
| 20260504182028 | 54 | 298 | 9.0 | 27.0 | 0.00 | 0.00 | 0.00 | 41 | 1001.0 |
| 20260504181542 | 54 | 286 | 11.0 | 19.0 | 0.00 | 0.00 | 0.00 | 42 | 1001.2 |
| 20260504181030 | 55 | 334 | 10.0 | 19.0 | 0.00 | 0.00 | 0.00 | 41 | 1000.7 |
| 20260504180529 | 56 | 305 | 10.0 | 20.0 | 0.00 | 0.00 | 0.00 | 41 | 1000.7 |
| 20260504180050 | 55 | 296 | 10.0 | 20.0 | 0.00 | 0.00 | 0.00 | 42 | 1000.8 |
| 20260504175528 | 55 | 288 | 8.0 | 17.0 | 0.00 | 0.00 | 0.00 | 43 | 1000.7 |
| 20260504175028 | 54 | 351 | 9.0 | 20.0 | 0.00 | 0.00 | 0.00 | 42 | 1000.6 |
| 20260504174543 | 54 | 327 | 10.0 | 22.0 | 0.00 | 0.00 | 0.00 | 43 | 1000.5 |
| 20260504174030 | 54 | 328 | 10.0 | 22.0 | 0.00 | 0.00 | 0.00 | 42 | 1000.4 |
| 20260504173527 | 54 | 342 | 11.0 | 27.0 | 0.00 | 0.00 | 0.00 | 43 | 1000.5 |
| 20260504173050 | 55 | 300 | 12.0 | 27.0 | 0.00 | 0.00 | 0.00 | 43 | 1000.4 |
| 20260504172531 | 55 | 275 | 10.0 | 21.0 | 0.00 | 0.00 | 0.00 | 44 | 1000.5 |
| 20260504172027 | 54 | 286 | 10.0 | 17.0 | 0.00 | 0.00 | 0.00 | 45 | 1000.3 |
| 20260504171541 | 55 | 318 | 8.0 | 21.0 | 0.00 | 0.00 | 0.00 | 44 | 1000.3 |
| 20260504171028 | 55 | 302 | 9.0 | 21.0 | 0.00 | 0.00 | 0.00 | 45 | 1000.3 |
| 20260504170527 | 55 | 288 | 8.0 | 21.0 | 0.00 | 0.00 | 0.00 | 45 | 1000.3 |
| 20260504151027 | 55 | 305 | 9.0 | 21.0 | 0.00 | 0.00 | 0.00 | 47 | 998.3 |
| 20260504150528 | 55 | 326 | 10.0 | 23.0 | 0.00 | 0.00 | 0.00 | 48 | 998.3 |
| 20260504141027 | 54 | 277 | 9.0 | 25.0 | 0.00 | 0.00 | 0.00 | 55 | 998.3 |
| 20260504140528 | 54 | 339 | 11.0 | 26.0 | 0.00 | 0.00 | 0.00 | 55 | 998.2 |
| 20260504130528 | 53 | 331 | 7.0 | 16.0 | 0.00 | 0.00 | 0.00 | 57 | 997.9 |
| 20260504110529 | 55 | 275 | 5.0 | 16.0 | 0.00 | 0.00 | 0.00 | 55 | 995.9 |